Date String (YYYY-MM-DD hh:mm:ss) UTC,Instrument flags,absolute air pressure of the measurement (hPa),sample flow rate (lpm),inlet stack bypass flow (lpm),air temperature of the measurement (°C),ambient temperature measured by the external sensor (°C),aerosol sample conditioner tube jacket temperature (°C),OPC LED temperature (°C),internal box temperature (°C),relative humidity of the measurement (%),span deviation,mass concentration of particles derived from Lorenz-Mie calculation of OPC scattering (μg/m³),mass concentration of particles derived from Lorenz-Mie calculation of OPC scattering (μg/m³),mass concentration of particles derived from Lorenz-Mie calculation of OPC scattering (μg/m³)
DateTimeUTC,F1_M11,P_M11,Q1_M11,Q2_M11,T1_M11,T2_M11,T3_M11,T4_M11,T5_M11,U1_M11,ZSPAN_M11,X0_M11,X2_M11,X1_M11
2023-09-08 12:00:00,SystemResetWarning,0836.6,5.00,000.00,028.8,027.4,000.0,037.1,030.3,16.5,0000.0,0008.97,0003.78,0002.89
2023-09-08 12:01:00,SystemResetWarning,0836.7,4.99,000.00,028.8,027.4,000.0,037.1,030.4,16.5,0000.0,0009.76,0003.77,0002.91
2023-09-08 12:02:00,SystemResetWarning,0836.6,5.00,000.00,028.8,027.4,000.0,037.1,030.4,16.6,0000.0,0010.05,0003.76,0002.92
2023-09-08 12:03:00,SystemResetWarning,0836.6,5.00,000.00,028.8,027.4,000.0,037.1,030.3,16.5,0000.0,0010.11,0003.75,0002.92
2023-09-08 12:04:00,SystemResetWarning,0836.6,5.00,000.00,028.9,027.4,000.0,037.1,030.3,16.5,0000.0,0010.20,0003.77,0002.93
2023-09-08 12:05:00,SystemResetWarning,0836.6,5.01,000.00,028.9,027.4,000.0,037.1,030.4,16.5,0000.0,0010.41,0003.76,0002.94
2023-09-08 12:06:00,SystemResetWarning,0836.6,5.01,000.00,028.9,027.4,000.0,037.1,030.4,16.5,0000.0,0010.21,0003.73,0002.93
2023-09-08 12:07:00,SystemResetWarning,0836.6,5.01,000.00,028.9,027.4,000.0,037.2,030.4,16.4,0000.0,0010.10,0003.68,0002.92
2023-09-08 12:08:00,SystemResetWarning,0836.6,5.00,000.00,028.9,027.4,000.0,037.2,030.3,16.4,0000.0,0010.04,0003.63,0002.91
2023-09-08 12:09:00,SystemResetWarning,0836.6,5.00,000.00,028.9,027.4,000.0,037.2,030.3,16.4,0000.0,0010.07,0003.62,0002.89
2023-09-08 12:10:00,SystemResetWarning,0836.6,5.00,000.00,028.9,027.4,000.0,037.2,030.3,16.4,0000.0,0010.18,0003.63,0002.88
2023-09-08 12:11:00,SystemResetWarning,0836.6,4.99,000.00,028.9,027.4,000.0,037.2,030.3,16.4,0000.0,0009.71,0003.63,0002.87
2023-09-08 12:12:00,SystemResetWarning,0836.6,4.99,000.00,028.9,027.4,000.0,037.2,030.3,16.4,0000.0,0008.81,0003.62,0002.88
2023-09-08 12:13:00,SystemResetWarning,0836.6,4.99,000.00,028.9,027.4,000.0,037.2,030.4,16.3,0000.0,0008.48,0003.65,0002.89
2023-09-08 12:14:00,SystemResetWarning,0836.6,4.99,000.00,028.9,027.4,000.0,037.2,030.4,16.3,0000.0,0008.51,0003.64,0002.88
2023-09-08 12:15:00,SystemResetWarning,0836.7,5.00,000.00,028.9,027.4,000.0,037.2,030.4,16.3,0000.0,0009.58,0003.60,0002.88
2023-09-08 12:16:00,SystemResetWarning,0836.7,5.01,000.00,028.9,027.4,000.0,037.2,030.4,16.3,0000.0,0009.15,0003.60,0002.87
2023-09-08 12:17:00,SystemResetWarning,0836.7,5.01,000.00,028.9,027.4,000.0,037.2,030.4,16.3,0000.0,0009.28,0003.63,0002.86
2023-09-08 12:18:00,SystemResetWarning,0836.7,5.00,000.00,028.9,027.4,000.0,037.2,030.4,16.3,0000.0,0009.22,0003.67,0002.88
2023-09-08 12:19:00,SystemResetWarning,0836.7,5.00,000.00,028.9,027.4,000.0,037.2,030.4,16.2,0000.0,0009.44,0003.67,0002.90
2023-09-08 12:20:00,SystemResetWarning,0836.7,5.00,000.00,028.9,027.4,000.0,037.2,030.4,16.3,0000.0,0009.71,0003.64,0002.92
2023-09-08 12:21:00,SystemResetWarning,0836.7,5.00,000.00,028.9,027.4,000.0,037.2,030.4,16.3,0000.0,0009.81,0003.67,0002.95
2023-09-08 12:22:00,SystemResetWarning,0836.7,4.99,000.00,028.9,027.4,000.0,037.2,030.4,16.3,0000.0,0010.49,0003.69,0002.97
2023-09-08 12:23:00,SystemResetWarning,0836.7,5.00,000.00,028.9,027.4,000.0,037.2,030.4,16.3,0000.0,0011.20,0003.75,0002.99
2023-09-08 12:24:00,SystemResetWarning,0836.7,5.00,000.00,028.9,027.4,000.0,037.2,030.4,16.3,0000.0,0012.02,0003.74,0003.00
2023-09-08 12:25:00,SystemResetWarning,0836.7,5.00,000.00,028.9,027.4,000.0,037.2,030.4,16.2,0000.0,0012.01,0003.73,0003.01
2023-09-08 12:26:00,SystemResetWarning,0836.7,5.00,000.00,028.9,027.4,000.0,037.2,030.4,16.2,0000.0,0011.64,0003.73,0003.01
2023-09-08 12:27:00,SystemResetWarning,0836.7,5.00,000.00,028.9,027.5,000.0,037.2,030.4,16.1,0000.0,0011.60,0003.74,0003.01
2023-09-08 12:28:00,SystemResetWarning,0836.8,5.00,000.00,028.9,027.5,000.0,037.2,030.4,16.2,0000.0,0012.10,0003.77,0003.02
2023-09-08 12:29:00,SystemResetWarning,0836.8,5.00,000.00,028.9,027.5,000.0,037.2,030.4,16.2,0000.0,0012.14,0003.77,0003.01
2023-09-08 12:30:00,SystemResetWarning,0836.8,5.00,000.00,028.9,027.5,000.0,037.2,030.4,16.2,0000.0,0011.86,0003.80,0002.99
2023-09-08 12:31:00,SystemResetWarning,0836.7,5.00,000.00,028.9,027.5,000.0,037.2,030.4,16.2,0000.0,0011.73,0003.80,0002.98
2023-09-08 12:32:00,SystemResetWarning,0836.8,4.99,000.00,028.9,027.5,000.0,037.3,030.4,16.3,0000.0,0011.73,0003.77,0002.98
2023-09-08 12:33:00,SystemResetWarning,0836.8,4.98,000.00,028.9,027.5,000.0,037.3,030.4,16.3,0000.0,0011.99,0003.77,0002.99
2023-09-08 12:34:00,SystemResetWarning,0836.8,5.00,000.00,028.9,027.5,000.0,037.3,030.4,16.3,0000.0,0012.13,0003.77,0002.98
2023-09-08 12:35:00,SystemResetWarning,0836.8,5.00,000.00,028.9,027.5,000.0,037.3,030.4,16.2,0000.0,0011.27,0003.79,0002.96
2023-09-08 12:36:00,SystemResetWarning,0836.8,5.00,000.00,028.9,027.5,000.0,037.3,030.3,16.2,0000.0,0011.50,0003.85,0002.97
2023-09-08 12:37:00,SystemResetWarning,0836.8,5.00,000.00,028.9,027.5,000.0,037.3,030.3,16.2,0000.0,0011.48,0003.89,0002.98
2023-09-08 12:38:00,SystemResetWarning,0836.8,5.01,000.00,028.9,027.5,000.0,037.3,030.4,16.2,0000.0,0011.24,0003.90,0003.00
2023-09-08 12:39:00,SystemResetWarning,0836.8,5.00,000.00,028.9,027.5,000.0,037.3,030.4,16.2,0001.2,0011.30,0003.87,0003.02
2023-09-08 12:40:00,SystemResetWarning,0836.8,5.00,000.00,028.9,027.5,000.0,037.3,030.4,16.2,0001.5,0011.69,0003.83,0003.02
2023-09-08 12:41:00,SystemResetWarning,0836.8,5.00,000.00,028.9,027.5,000.0,037.3,030.4,16.1,0001.4,0011.85,0003.82,0003.04
2023-09-08 12:42:00,SystemResetWarning,0836.7,5.00,000.00,029.0,027.5,000.0,037.3,030.4,16.1,0001.2,0012.18,0003.84,0003.06
2023-09-08 12:43:00,SystemResetWarning,0836.8,4.99,000.00,028.9,027.5,000.0,037.3,030.4,16.2,0000.7,0012.60,0003.87,0003.05
2023-09-08 12:44:00,SystemResetWarning,0836.8,4.99,000.00,029.0,027.5,000.0,037.3,030.4,16.2,0000.4,0012.38,0003.90,0003.07
2023-09-08 12:45:00,SystemResetWarning,0836.8,4.99,000.00,029.0,027.5,000.0,037.3,030.4,16.2,0000.0,0011.61,0003.87,0003.07
2023-09-08 12:46:00,SystemResetWarning,0836.8,5.00,000.00,029.0,027.5,000.0,037.3,030.4,16.1,0000.0,0012.61,0003.86,0003.08
2023-09-08 12:47:00,SystemResetWarning,0836.8,5.00,000.00,029.0,027.5,000.0,037.3,030.4,16.1,0000.0,0012.97,0003.81,0003.07
2023-09-08 12:48:00,SystemResetWarning,0836.8,5.01,000.00,029.0,027.5,000.0,037.3,030.4,16.2,0000.0,0012.59,0003.77,0003.07
2023-09-08 12:49:00,SystemResetWarning,0836.8,5.00,000.00,029.0,027.5,000.0,037.3,030.4,16.2,0000.0,0013.29,0003.76,0003.05
2023-09-08 12:50:00,SystemResetWarning,0836.8,5.00,000.00,029.0,027.5,000.0,037.3,030.4,16.2,0000.0,0013.81,0003.81,0003.03
2023-09-08 12:51:00,SystemResetWarning,0836.7,5.00,000.00,029.0,027.5,000.0,037.3,030.4,16.2,0000.0,0013.95,0003.81,0003.01
2023-09-08 12:52:00,SystemResetWarning,0836.7,5.01,000.00,029.0,027.5,000.0,037.3,030.4,16.2,0000.0,0013.86,0003.81,0003.00
2023-09-08 12:53:00,SystemResetWarning,0836.7,5.00,000.00,029.0,027.5,000.0,037.3,030.4,16.2,0000.0,0014.11,0003.82,0002.99
2023-09-08 12:54:00,SystemResetWarning,0836.7,5.00,000.00,029.0,027.5,000.0,037.3,030.5,16.2,0000.0,0013.65,0003.81,0002.98
2023-09-08 12:55:00,SystemResetWarning,0836.8,4.99,000.00,029.0,027.5,000.0,037.3,030.5,16.2,0000.0,0013.39,0003.75,0002.96
2023-09-08 12:56:00,SystemResetWarning,0836.8,5.00,000.00,029.0,027.5,000.0,037.3,030.5,16.3,0000.0,0013.29,0003.77,0002.94
2023-09-08 12:57:00,SystemResetWarning,0836.8,4.99,000.00,029.0,027.5,000.0,037.3,030.5,16.2,0000.0,0012.37,0003.73,0002.93
2023-09-08 12:58:00,SystemResetWarning,0836.8,5.00,000.00,029.0,027.5,000.0,037.3,030.5,16.2,0000.0,0011.79,0003.73,0002.91
2023-09-08 12:59:00,SystemResetWarning,0836.8,5.00,000.00,029.0,027.5,000.0,037.3,030.5,16.2,0000.0,0011.59,0003.73,0002.91
